DateTimeUTC,F1_A11,F1_S11,BsB_S11,BsG_S11,BsR_S11,BbsB_S11,BbsG_S11,BbsR_S11,BaB_A11,BaG_A11,BaR_A11,Tu_S11,T_S11,Uu_S11,U_S11,P_S11,T1_A11
2021-09-28T04:00:00Z,00000200,21000000,,,,,,,0000.07,0000.18,0000.11,16.1,23.2,,00.0,0673.1,30.8
2021-09-28T04:01:00Z,00000200,21000000,,,,,,,-000.19,-000.04,0000.23,16.2,23.2,,00.0,0673.2,30.8
2021-09-28T04:02:00Z,00000200,21000000,,,,,,,0000.35,0000.04,-000.18,16.2,23.2,,00.0,0673.2,30.8
2021-09-28T04:03:00Z,00000200,61000000,,,,,,,0000.03,-000.05,0000.14,16.2,23.2,,00.0,0673.2,30.9
2021-09-28T04:04:00Z,00000200,41000000,0001.26,0000.66,0000.35,0000.14,0000.07,-000.18,0000.02,0000.34,0000.28,16.5,23.2,,00.0,0674.1,30.9
2021-09-28T04:05:00Z,00000200,01000000,0000.24,0000.60,0000.25,0000.19,0000.19,0000.09,0000.25,-000.07,-000.11,16.6,23.1,,00.0,0674.2,30.9
2021-09-28T04:06:00Z,00000200,01000000,0000.63,0000.97,0000.37,0000.54,-000.25,-000.12,-000.01,0000.11,0000.33,16.7,23.1,,00.0,0674.2,30.9
2021-09-28T04:07:00Z,00000200,01010000,0000.52,0000.49,0000.37,-000.13,0000.19,0000.02,0000.15,0000.15,-000.39,16.6,23.1,,00.0,0674.1,30.9
2021-09-28T04:08:00Z,00000200,01000000,0000.74,0000.48,0000.55,-000.04,0000.15,-000.07,0000.03,-000.15,-000.00,16.5,23.1,,00.0,0674.1,30.8
2021-09-28T04:09:00Z,00000200,01000000,0001.52,0000.89,0000.52,0000.49,0000.07,0000.30,-000.41,-000.21,-000.21,16.4,23.0,,00.0,0674.1,30.8
2021-09-28T04:10:00Z,00000200,01000000,0001.64,0000.99,0000.17,0000.84,0000.06,-000.11,0000.67,0000.32,0000.45,16.4,23.0,,00.0,0674.1,30.8
2021-09-28T04:11:00Z,00000200,01000000,0000.12,0001.03,0000.25,-000.12,-000.04,-000.09,0000.11,0000.47,0000.13,16.3,23.0,,00.0,0674.1,30.8
2021-09-28T04:12:00Z,00000200,01000000,0001.58,0000.83,0000.80,0000.57,0000.02,-000.10,0000.45,-000.02,0000.55,16.3,23.0,,00.0,0674.1,30.8
2021-09-28T04:13:00Z,00000200,01000000,0000.88,0000.78,0000.71,0000.67,0000.12,-000.13,0000.17,0000.74,0000.13,16.3,23.0,,00.0,0674.1,30.8
2021-09-28T04:14:00Z,00000200,01000000,0001.09,0000.82,0000.65,0000.89,0000.07,-000.04,0000.08,-000.23,-000.16,16.4,23.0,,00.0,0674.1,30.8
2021-09-28T04:15:00Z,00000200,01000000,0001.12,0000.62,0000.34,0000.41,-000.06,0000.22,0000.32,0000.50,0000.27,16.4,23.0,,00.0,0674.1,30.8
2021-09-28T04:16:00Z,00000200,01000000,0001.73,0000.44,0000.45,-000.02,0000.03,0000.21,0000.22,0000.08,0000.09,16.4,23.0,,00.0,0674.1,30.8
2021-09-28T04:17:00Z,00000200,01000000,0001.35,0000.91,0000.37,0000.49,0000.03,-000.04,0000.23,0000.30,0000.42,16.5,23.0,,00.0,0674.1,30.8
2021-09-28T04:18:00Z,00000200,01000000,0001.19,0000.93,0000.79,0000.21,0000.06,0000.39,0000.36,0000.11,0000.05,16.5,23.0,,00.0,0674.1,30.8
2021-09-28T04:19:00Z,00000200,01000000,0001.45,0000.81,0000.53,-000.13,0000.10,-000.02,0000.43,0000.28,0000.29,16.6,23.0,,00.0,0674.1,30.8
2021-09-28T04:20:00Z,00000200,01000000,0001.35,0000.97,0000.90,0000.40,-000.17,0000.24,-000.10,0000.27,0000.12,16.6,23.1,,00.0,0674.1,30.8
2021-09-28T04:21:00Z,00000200,01000000,0001.71,0000.74,0000.39,0000.56,-000.03,0000.01,0000.38,0000.23,-000.10,16.6,23.1,,00.0,0674.1,30.8
2021-09-28T04:22:00Z,00000200,01000000,0000.98,0001.04,0000.53,0000.49,-000.23,-000.10,0000.46,-000.17,0000.29,16.6,23.1,,00.0,0674.1,30.8
2021-09-28T04:23:00Z,00000200,01000000,0001.75,0000.46,0000.65,0000.31,0000.12,0000.21,-000.37,0000.39,-000.24,16.6,23.1,,00.0,0674.1,30.8
2021-09-28T04:24:00Z,00000200,01000000,0001.13,0000.77,0000.51,0000.23,0000.12,-000.01,0000.33,-000.18,0000.45,16.5,23.0,,00.0,0674.1,30.8
2021-09-28T04:25:00Z,00000200,01000000,0001.11,0000.81,0000.47,0000.18,0000.18,0000.02,0000.11,0000.43,-000.29,16.4,23.0,,00.0,0674.1,30.8
2021-09-28T04:26:00Z,00000200,01000000,0000.67,0001.08,0000.41,0000.27,0000.09,-000.02,-000.01,0000.34,0000.49,16.3,22.9,,00.0,0674.1,30.8
2021-09-28T04:27:00Z,00000200,01000000,0001.34,0000.93,0000.45,0000.12,0000.06,-000.02,0000.51,-000.07,0000.22,16.3,22.9,,00.0,0674.1,30.8
2021-09-28T04:28:00Z,00000200,01000000,0001.11,0000.83,0000.47,0000.10,0000.02,-000.04,0000.22,0000.41,0000.03,16.4,22.9,,00.0,0674.1,30.8
2021-09-28T04:29:00Z,00000200,01000000,0001.07,0000.80,0000.59,0000.02,-000.15,-000.22,0000.22,0000.06,0000.33,16.4,23.0,,00.0,0674.1,30.8
2021-09-28T04:30:00Z,00000200,01000000,0001.85,0000.76,0000.02,0000.46,0000.01,0000.15,0000.46,0000.50,-000.05,16.4,23.0,,00.0,0674.1,30.8
2021-09-28T04:31:00Z,00000200,01000000,0001.85,0000.92,0000.40,0001.19,0000.24,0000.13,-000.10,-000.16,0000.04,16.5,23.0,,00.0,0674.1,30.8
2021-09-28T04:32:00Z,00000200,01000000,0000.77,0000.79,0000.74,0000.52,0000.09,0000.10,0000.44,0000.58,0000.42,16.5,23.0,,00.0,0674.1,30.8
2021-09-28T04:33:00Z,00000200,01000000,0001.91,0000.98,0000.39,0000.45,0000.22,-000.08,-000.06,-000.05,0000.02,16.5,23.0,,00.0,0674.1,30.8
2021-09-28T04:34:00Z,00000200,01000000,0000.77,0000.94,0000.34,0000.53,0000.16,-000.15,0000.43,0000.28,0000.18,16.5,23.0,,00.0,0674.0,30.8
2021-09-28T04:35:00Z,00000200,01000000,0001.60,0001.18,0000.68,0000.58,0000.10,-000.15,0000.09,-000.15,0000.04,16.5,23.0,,00.0,0674.0,30.8
2021-09-28T04:36:00Z,00000200,01000000,0001.36,0000.94,0000.50,0000.47,-000.11,-000.09,0000.15,0000.24,0000.04,16.4,23.0,,00.0,0674.0,30.8
2021-09-28T04:37:00Z,00000200,01000000,0001.49,0000.95,0000.65,0000.74,0000.20,0000.04,-000.08,0000.19,-000.18,16.3,22.9,,00.0,0674.0,30.8
2021-09-28T04:38:00Z,00000200,01000000,0000.82,0000.49,0000.56,0000.56,0000.16,0000.03,0000.20,-000.31,0000.27,16.2,22.9,,00.0,0674.0,30.8
2021-09-28T04:39:00Z,00000200,01000000,0001.27,0001.04,0000.49,0000.25,0000.04,0000.19,0000.19,0000.51,0000.23,16.1,22.8,,00.0,0674.0,30.8
2021-09-28T04:40:00Z,00000200,01000000,0001.23,0000.80,0000.50,-000.23,0000.16,-000.01,-000.02,0000.23,-000.06,16.1,22.8,,00.0,0674.0,30.8
2021-09-28T04:41:00Z,00000200,01000000,0001.03,0000.88,0000.58,0000.34,-000.01,-000.01,0000.74,0000.48,0000.49,16.0,22.8,,00.0,0674.1,30.8
2021-09-28T04:42:00Z,00000200,01000000,0001.16,0001.12,0000.39,0000.29,-000.17,-000.19,0000.39,0000.19,0000.27,16.0,22.7,,00.0,0674.1,30.8
2021-09-28T04:43:00Z,00000200,01000000,0001.49,0000.77,0000.72,0000.82,-000.02,-000.10,0000.24,-000.39,0000.28,16.1,22.7,,00.0,0674.1,30.8
2021-09-28T04:44:00Z,00000200,01000000,0000.91,0000.69,0000.65,0000.06,0000.24,0000.13,0000.02,0000.74,-000.09,16.1,22.7,,00.0,0674.1,30.8
2021-09-28T04:45:00Z,00000200,01000000,0000.68,0000.94,0000.58,0000.31,0000.03,-000.09,0000.34,-000.13,-000.07,16.1,22.8,,00.0,0674.1,30.8
2021-09-28T04:46:00Z,00000200,01000000,0000.73,0000.80,0000.44,0000.86,0000.14,0000.15,-000.01,0000.51,0000.22,16.2,22.8,,00.0,0674.1,30.8
2021-09-28T04:47:00Z,00000200,01000000,0001.24,0001.23,0000.34,0000.13,0000.32,0000.03,0000.41,-000.05,-000.07,16.2,22.8,,00.0,0674.2,30.8
2021-09-28T04:48:00Z,00000200,01000000,0000.44,0001.09,0000.60,0000.09,0000.06,0000.05,0000.35,0000.32,0000.44,16.3,22.8,,00.0,0674.2,30.8
2021-09-28T04:49:00Z,00000200,01000000,0001.23,0000.60,0000.74,0000.09,0000.22,0000.22,0000.15,0000.24,0000.63,16.3,22.8,,00.0,0674.1,30.8
2021-09-28T04:50:00Z,00000200,01000000,0000.90,0000.35,0000.56,0000.66,-000.07,-000.16,0000.11,0000.07,-000.32,16.3,22.8,,00.0,0674.1,30.8
2021-09-28T04:51:00Z,00000200,01000000,0001.36,0000.94,0000.65,0000.23,0000.16,-000.00,0000.18,0000.42,0000.14,16.4,22.9,,00.0,0674.1,30.8
2021-09-28T04:52:00Z,00000200,01000000,0001.04,0000.90,0000.74,0000.56,0000.49,0000.04,0000.25,0000.27,0000.42,16.4,22.9,,00.0,0674.1,30.8
2021-09-28T04:53:00Z,00000200,01000000,0000.92,0000.30,0000.59,0000.45,-000.26,-000.16,0000.16,-000.17,0000.00,16.4,22.9,,00.0,0674.2,30.8
2021-09-28T04:54:00Z,00000200,01000000,0001.23,0001.17,0000.42,0000.70,0000.30,0000.01,0000.03,0000.07,-000.12,16.3,22.9,,00.0,0674.1,30.8
2021-09-28T04:55:00Z,00000200,01000000,0001.33,0000.83,0000.30,-000.16,0000.07,0000.36,0000.36,0000.05,0000.29,16.3,22.9,,00.0,0674.1,30.8
2021-09-28T04:56:00Z,00000200,01000000,0001.30,0000.60,0000.72,-000.00,0000.39,0000.39,0000.07,0000.45,0000.32,16.2,22.8,,00.0,0674.1,30.8
2021-09-28T04:57:00Z,00000200,41000000,,,,,,,0001.17,0000.69,0000.59,16.3,22.8,,00.0,0674.2,30.8
2021-09-28T04:58:00Z,00000200,61000000,,,,,,,-000.71,-000.37,-000.53,15.9,23.0,,00.0,0673.2,30.8
2021-09-28T04:59:00Z,00000200,21000000,,,,,,,-000.04,0000.10,-000.01,15.9,23.1,,00.0,0673.1,30.8
